Regional Weather Roundup
Issued by NWS

Home | Current Version | Previous Version | Graphics & Text | Print | Product List | Glossary On
Versions: 1 2 3 4 5 6 7 8 9 10 11 12 13 14 15 16 17 18 19 20 21 22 23 24 25 26 27 28 29 30 31 32 33 34 35 36 37 38 39 40 41 42 43 44 45 46 47 48 49 50
000
ASUS43 KDTX 190901
RWRMI
MICHIGAN HOURLY REGIONAL WEATHER ROUNDUP
NATIONAL WEATHER SERVICE DETROIT/PONTIAC MI
500 AM EDT FRI SEP 19 2014

NOTE: "FAIR" INDICATES FEW OR NO CLOUDS BELOW 12,000 FEET WITH NO
SIGNIFICANT WEATHER AND/OR OBSTRUCTION TO VISIBILITY.

MIZ047>049-052>055-059>063-066>070-074>076-081>083-191000-
SOUTHEAST LOWER MICHIGAN

CITY           SKY/WX    TMP DP  RH WIND       PRES   REMARKS
ADRIAN         CLEAR     45  44  97 NE6       30.23S
ALMA           CLEAR     40  39  98 CALM      30.24S
ANN ARBOR      CLEAR     37  35  92 CALM      30.23S
BAD AXE        CLEAR     32  32 100 CALM      30.26S
CARO           CLEAR     34  34  99 CALM      30.24S FOG
DETROIT CITY   CLEAR     47  41  80 N3        30.24S
DETROIT        CLEAR     45  41  86 N3        30.24S
FLINT          CLEAR     37  35  92 CALM      30.25S
GROSSE ILE     CLEAR     46  43  87 CALM      30.22S
HILLSDALE      CLEAR     46  46 100 CALM      30.21S FOG
HOWELL         CLEAR     41  40  97 CALM      30.23S

CITY           SKY/WX    TMP DP  RH WIND       PRES   REMARKS
JACKSON        CLEAR     45  43  93 CALM      30.22F
LAMBERTVILLE   CLEAR     46  45  93 NE3       30.22S
LANSING        CLEAR     45  42  89 E5        30.24S
LAPEER         FAIR      33  33  99 CALM      30.24S FOG
MASON          CLEAR     42  41  96 CALM      30.23S FOG
MONROE         MOCLDY    48  46  93 CALM      30.21S
MT. CLEMENS    CLEAR     39  39 100 N5        30.22S
PONTIAC        CLEAR     40  37  89 CALM      30.23S
PORT HOPE        N/A     40  38  93 CALM      30.24S
PORT HURON     CLEAR     34  34 100 CALM      30.24S FOG
TRI CITIES     PTCLDY    40  36  86 CALM      30.25S
TROY           CLEAR     45  41  86 CALM      30.25S
SAGINAW HB       N/A     37  37 100 CALM      30.24S FOG
$$
MIZ043>046-050>051-056>058-064>065-071>073-077>080-191000-
SOUTHWEST LOWER MICHIGAN

CITY           SKY/WX    TMP DP  RH WIND       PRES   REMARKS
BATTLE CREEK   CLEAR     49  47  93 E5        30.21S FOG
BENTON HARBOR  CLEAR     51  50  96 SE7       30.17F FOG
BIG RAPIDS     PTCLDY    42  42 100 CALM      30.21S
COLDWATER      CLEAR     49  48  97 E5        30.20S FOG
FREMONT        FAIR      45  44  96 E6        30.19F
HOLLAND        CLEAR     49  47  93 E7        30.19F FOG
GRAND RAPIDS   CLOUDY    48  47  96 SE9       30.21F FOG
IONIA          FAIR      43  43  99 E5        30.22S FOG
KALAMAZOO      CLEAR     47  45  93 CALM      30.20F FOG
LUDINGTON      CLEAR     47  45  93 SE8       30.18S
MARSHALL       CLEAR     46  45  99 CALM      30.21S FOG
MOUNT PLEASANT CLEAR     37  36  98 CALM      30.23S
MUSKEGON       CLEAR     48  45  89 SE8       30.19F
SOUTH HAVEN    CLEAR     52  51  97 SE7       30.18S FOG
$$
MIZ016>042-191000-
NORTHERN LOWER MICHIGAN

CITY           SKY/WX    TMP DP  RH WIND       PRES   REMARKS
ALPENA         CLEAR     35  33  92 CALM      30.25S
BEAVER ISLAND  CLOUDY    53  50  90 S6        30.17S
CADILLAC       CLEAR     42  40  93 SE5       30.20S
CHARLEVOIX     CLOUDY    47  43  86 SE8       30.21S
FRANKFORT      CLEAR     49  44  80 SE8       30.17S
GAYLORD        CLOUDY    43  39  86 S9        30.21S
GRAYLING       CLOUDY    46  44  91 E6        30.22F
HARBOR SPRINGS CLOUDY    46  41  82 NE5       30.20S
HOUGHTON LAKE  MOCLDY    44  40  85 SE7       30.23S
MANISTEE       CLEAR     46  41  81 SE6       30.19S
OSCODA         MOCLDY    33  32  98 CALM      30.25S
PELLSTON       CLOUDY    45  40  82 SE9       30.20F
TRAVERSE CITY  CLEAR     48  42  80 VRB5      30.18R
$$
MIZ007>008-015-191000-
EASTERN UPPER MICHIGAN

CITY           SKY/WX    TMP DP  RH WIND       PRES   REMARKS
KINROSS        CLOUDY    43  43 100 SE6       30.21S
MACKINAC ISLAN CLOUDY    46  40  80 SE8G18    30.20S
NEWBERRY       CLOUDY    47  46  96 S10       30.15F
S. S. MARIE    CLOUDY    41  39  93 E3        30.21F
$$
MIZ004>006-011>014-085-191000-
CENTRAL UPPER MICHIGAN

CITY           SKY/WX    TMP DP  RH WIND       PRES   REMARKS
MANISTIQUE     MOCLDY    55  50  84 S8        30.14S
ESCANABA       CLEAR     41  37  87 NW3       30.13F
MENOMINEE      PTCLDY    45  41  87 CALM      30.13F
SAWYER-GWINN   CLOUDY    44  42  93 S12       30.10F
$$
MIZ001>003-009>011-084-191000-
WESTERN UPPER MICHIGAN

CITY           SKY/WX    TMP DP  RH WIND       PRES   REMARKS
IRON MOUNTAIN  CLOUDY    48  46  93 S6        30.11S
HOUGHTON       CLOUDY    48  45  89 S14       30.01F
COPPER HARBOR    N/A     50  46  86 SW13G18   30.00F
IRONWOOD       PTCLDY    54  52  94 S6G16     29.98F
$$

ABBREVIATIONS USED IN REMARKS
   TC - TEMPERATURE IN CELSIUS
  WCI - WIND CHILL INDEX
   HX - HEAT INDEX
  VSB - VISIBILITY




USA.gov is the U.S. government's official web portal to all federal, state and local government web resources and services.